Location: Carter Cabin
(41.0271°N, 122.9339°W)
Time: 13:42:45
(UTC+00:00)

NOSS 7 (E) - Pass Details

Date: 13 April 2024
Orbit: 389 x 1684 km, 63.3° (Epoch: 21 May)

Event Time Altitude Azimuth Distance (km) Brightness Sun altitude
Rises 12:09:48 0° 326° (NNW) 2,314 8.0 -15.8°
Reaches altitude 10° 12:11:42 10° 328° (NNW) 1,499 7.0 -15.5°
Maximum altitude 12:14:55 77° 55° (NE) 485 4.6 -14.9°
Drops below altitude 10° 12:18:54 10° 142° (SE) 1,852 7.6 -14.3°
Sets 12:21:27 0° 144° (SE) 2,934 8.7 -13.8°
